Date,TemperatureHighF,TemperatureAvgF,TemperatureLowF,DewpointHighF,DewpointAvgF,DewpointLowF,HumidityHigh,HumidityAvg,HumidityLow,PressureMaxIn,PressureMinIn,WindSpeedMaxMPH,WindSpeedAvgMPH,GustSpeedMaxMPH,PrecipitationSumIn
2013-12-7,31.3,28.9,27.4,22.5,21.4,18.3,81,73,58,30.23,30.09,0,0,0,0.00
2013-12-8,47.2,35.5,27.0,38.3,29.9,21.5,87,80,71,30.10,29.83,0,0,0,0.00
2013-12-9,39.1,36.5,33.3,36.6,33.7,29.1,92,90,85,30.20,29.86,0,0,0,0.00
2013-12-10,45.0,34.9,27.2,29.1,25.1,22.0,87,69,47,30.33,30.15,0,0,0,0.00
2013-12-11,55.4,41.1,28.1,35.3,29.8,22.7,83,66,43,30.38,30.13,0,0,0,0.00
2013-12-12,51.5,41.5,32.0,36.1,31.5,26.3,80,68,50,30.41,30.09,0,0,0,0.00
2013-12-13,49.0,45.8,42.7,47.2,41.1,33.8,94,84,68,30.12,29.72,0,0,0,0.00
2013-12-14,49.7,44.5,37.1,47.0,38.7,30.5,93,80,64,30.17,29.69,0,0,0,0.00
2013-12-15,56.9,43.9,31.9,37.3,32.6,26.6,82,66,46,30.21,30.07,0,0,0,0.00
2013-12-16,63.9,48.8,34.2,41.2,34.7,28.0,79,60,39,30.12,29.99,0,0,0,0.00
2013-12-17,67.7,51.7,36.0,44.2,37.7,29.8,80,60,39,30.14,30.04,0,0,0,0.00
2013-12-18,67.7,54.1,38.3,54.0,44.5,32.1,81,71,55,30.10,29.86,0,0,0,0.00
2013-12-19,73.8,64.4,55.6,61.4,57.5,49.9,87,79,62,29.86,29.61,0,0,0,0.00
2013-12-20,73.3,68.3,65.0,66.3,63.2,60.7,88,84,74,29.67,29.46,0,0,0,0.00
2013-12-21,70.9,52.7,44.1,65.4,45.4,39.2,93,78,47,29.65,29.40,0,0,0,0.00
2013-12-22,50.4,44.9,36.9,40.0,35.6,29.0,88,70,52,30.18,29.65,0,0,0,0.00
2013-12-23,51.8,39.7,28.8,33.4,29.3,23.5,83,68,44,30.33,30.18,0,0,0,0.00
2013-12-24,57.6,42.9,29.9,37.8,30.3,25.4,86,64,34,30.33,30.05,0,0,0,0.00
2013-12-25,57.6,48.1,38.2,48.1,41.5,34.4,90,78,64,30.21,30.04,0,0,0,0.00
2013-12-26,52.7,43.9,37.1,41.1,35.8,31.5,83,73,63,30.25,30.12,0,0,0,0.00
2013-12-28,61.6,55.4,48.6,46.1,44.9,42.7,82,68,54,29.99,29.81,0,0,0,0.00
2013-12-29,60.5,48.3,33.5,51.1,42.5,28.5,88,80,69,30.10,29.76,0,0,0,0.00
2013-12-30,43.6,37.0,32.8,31.2,27.6,23.9,86,69,54,30.19,30.03,0,0,0,0.00
2013-12-31,54.2,41.6,33.5,34.5,31.1,26.8,86,68,45,30.26,30.03,0,0,0,0.00